Location: Unspecified
(0.0000°N, 0.0000°E)
Time: 21:47:00
(UTC+02:00)

USA 116 - Visible Passes

Search period start: 25 April 2015 00:00
Search period end: 05 May 2015 00:00
Orbit: 405 x 834 km, 97.9° (Epoch: 18 November)

Date Brightness Start Highest point End Pass type
(mag) Time Alt. Az. Time Alt. Az. Time Alt. Az.
25 Apr 6.3 05:46:16 10° SE 05:49:15 20° E 05:52:06 10° NNE visible
25 Apr 5.5 07:22:54 10° SW 07:25:02 13° WSW 07:26:49 10° WNW visible
26 Apr 5.4 06:00:06 10° SE 06:03:47 32° E 06:07:07 10° NNE visible
27 Apr 4.3 06:14:15 10° SSE 06:18:16 54° E 06:21:48 10° N visible
28 Apr 3.5 06:28:38 10° S 06:32:42 84° WSW 06:36:16 10° NNW visible
29 Apr 3.8 06:43:15 10° S 06:47:06 46° WSW 06:50:30 10° NNW visible
30 Apr 4.5 06:58:07 10° SSW 07:01:29 27° WSW 07:04:28 10° NW visible
01 May 6.8 05:38:30 10° ESE 05:39:57 12° E 05:41:33 10° NE visible
01 May 5.1 07:13:25 10° SW 07:15:52 16° WSW 07:18:00 10° WNW visible
02 May 6.0 05:51:44 10° SE 05:54:29 20° E 05:57:07 10° NNE visible
03 May 5.0 06:05:36 10° SSE 06:08:58 34° E 06:12:03 10° NNE visible
04 May 3.7 06:19:48 10° SSE 06:23:25 64° E 06:26:41 10° N visible
